CUSAT 1 (39266 NORAD) Tracking and Keplerian Element Data

This shows tracking and keplerian element data for the satellite.

Feedback or suggestion? Click here.




ElementValue
Catalog39266
NameCUSAT 1
Epoch Orbit26973
Epoch Day346.52449043
Epoch Year2018
RAAN160.0972
Inclination80.9831
Eccentricity0.0644253
Argument of Perigee75.4281
Mean Anonmoly291.7421
Mean Motion14.33724201
Decay Rate2.617E-05
L11 39266U 13055B 18346.52449043 .00002617 00000-0 69811-4 0 9998
L22 39266 80.9831 160.0972 0644253 75.4281 291.7421 14.33724201269733



Live tracking and technical data element details for CUSAT 1 (NORAD 39266). CUSAT 1 can be tracked NOW for your location showing map with azimuth and elevation plus other details from your city location.







IsCatalogInMostPopularTable: catalog: 39266, numindb: 460
Update: records affected: 1



GetName: 39266 CUSAT 1

Hit Count: updated at: Fri, 16 May 2025 11:55:50 GMT